GSAT-16

Last updated on Mon Oct 14 2024 00:02:39 GMT+0000 (Coordinated Universal Time)

1 40332U 14078A 24287.14077407 .00000084 00000+0 00000+0 0 9995 2 40332 0.0543 93.6265 0005186 22.2708 12.0870 1.00271710 36127
UTC large
Height (km)
Speed (km/s)
/
Latitude / Longitude
Inclination (degrees)
Orbital Period (minutes)
Azimuth
Elevation
Range (km)
Doppler Factor

Next 0 passes for location: London (51.5072 / 0.1276)

Sorry there are no passes over London.